When you browse on this site, cookies collect data to enhance your experience and personalize the content and advertising you see.
Visit our Privacy Policy to learn more. By continuing to use the site, you agree to this use of cookies and data.

Meteo pe oră la Punakha

Astăzi, 24 Septembrie, Joi

Timp Temperatura Precipitaţii Vânt Presiune Umiditate
00:00 +16°C° 0 mm 0 m/s 586 mmHg 91%
01:00 +16°C° 0 mm 0 m/s 585 mmHg 91%
02:00 +16°C° 0 mm 0 m/s 585 mmHg 91%
03:00 +16°C° 0 mm 0 m/s 584 mmHg 91%
04:00 +16°C° 0 mm 0 m/s 585 mmHg 90%
05:00 +16°C° 0 mm 0 m/s 585 mmHg 90%
06:00 +16°C° 0 mm 0 m/s 585 mmHg 94%
07:00 +17°C° 0.1 mm 0 m/s 586 mmHg 93%
08:00 +17°C° 0.1 mm 0 m/s 586 mmHg 93%
09:00 +18°C° 0.1 mm 0 m/s 586 mmHg 93%
10:00 +20°C° 0.2 mm 1 m/s 586 mmHg 91%
11:00 +21°C° 0.2 mm 1 m/s 586 mmHg 89%
12:00 +21°C° 0 mm 1 m/s 586 mmHg 91%
13:00 +21°C° 0.1 mm 1 m/s 585 mmHg 89%
14:00 +21°C° 0.1 mm 1 m/s 585 mmHg 88%
15:00 +22°C° 0.1 mm 1 m/s 584 mmHg 87%
16:00 +21°C° 0.2 mm 1 m/s 584 mmHg 90%
17:00 +20°C° 0.2 mm 1 m/s 584 mmHg 92%
18:00 +17°C° 0.2 mm 0 m/s 583 mmHg 95%
19:00 +17°C° 0.2 mm 0 m/s 584 mmHg 95%
20:00 +17°C° 0.2 mm 0 m/s 584 mmHg 95%
21:00 +17°C° 0.2 mm 0 m/s 585 mmHg 95%
22:00 +17°C° 0.3 mm 0 m/s 585 mmHg 95%
23:00 +17°C° 0.3 mm 0 m/s 584 mmHg 95%

Mâine, 25 Septembrie, Vineri

Timp Temperatura Precipitaţii Vânt Presiune Umiditate
00:00 +17°C° 0.3 mm 0 m/s 584 mmHg 95%
01:00 +17°C° 0.2 mm 0 m/s 584 mmHg 95%
02:00 +17°C° 0.2 mm 0 m/s 584 mmHg 95%
03:00 +17°C° 0.2 mm 0 m/s 583 mmHg 95%
04:00 +17°C° 0.1 mm 0 m/s 583 mmHg 95%
05:00 +17°C° 0.1 mm 0 m/s 583 mmHg 94%
06:00 +16°C° 0.1 mm 0 m/s 583 mmHg 93%
07:00 +17°C° 0.1 mm 0 m/s 584 mmHg 93%
08:00 +18°C° 0.1 mm 0 m/s 584 mmHg 92%
09:00 +18°C° 0.1 mm 0 m/s 585 mmHg 92%
10:00 +21°C° 0.2 mm 1 m/s 584 mmHg 91%
11:00 +21°C° 0.2 mm 1 m/s 584 mmHg 91%
12:00 +21°C° 0.2 mm 1 m/s 584 mmHg 90%
13:00 +21°C° 1 mm 1 m/s 583 mmHg 92%
14:00 +20°C° 1 mm 1 m/s 582 mmHg 94%
15:00 +18°C° 1 mm 0 m/s 582 mmHg 97%
16:00 +17°C° 0.2 mm 0 m/s 582 mmHg 97%
17:00 +17°C° 0.2 mm 0 m/s 582 mmHg 97%
18:00 +17°C° 0.2 mm 0 m/s 582 mmHg 98%
19:00 +17°C° 0.1 mm 0 m/s 583 mmHg 98%
20:00 +17°C° 0.1 mm 0 m/s 583 mmHg 97%
21:00 +17°C° 0.1 mm 0 m/s 583 mmHg 97%
22:00 +17°C° 0.5 mm 0 m/s 583 mmHg 97%
23:00 +16°C° 0.5 mm 0 m/s 583 mmHg 96%

Poimâine, 26 Septembrie, Sâmbătă

Timp Temperatura Precipitaţii Vânt Presiune Umiditate
00:00 +16°C° 0.5 mm 0 m/s 583 mmHg 96%
01:00 +16°C° 1.6 mm 0 m/s 583 mmHg 96%
02:00 +16°C° 1.6 mm 0 m/s 582 mmHg 97%
03:00 +16°C° 1.6 mm 0 m/s 582 mmHg 97%
04:00 +16°C° 1.5 mm 0 m/s 582 mmHg 97%
05:00 +16°C° 1.5 mm 0 m/s 583 mmHg 98%
06:00 +16°C° 1.5 mm 0 m/s 583 mmHg 98%
07:00 +19°C° 0.2 mm 1 m/s 583 mmHg 95%
08:00 +20°C° 0.2 mm 1 m/s 584 mmHg 92%
09:00 +21°C° 0.2 mm 1 m/s 585 mmHg 89%
10:00 +21°C° 0.4 mm 2 m/s 585 mmHg 85%
11:00 +23°C° 0.4 mm 2 m/s 585 mmHg 81%
12:00 +24°C° 0.4 mm 2 m/s 586 mmHg 78%
13:00 +23°C° 0.7 mm 2 m/s 585 mmHg 81%
14:00 +21°C° 0.7 mm 2 m/s 584 mmHg 85%
15:00 +21°C° 0.7 mm 2 m/s 583 mmHg 89%
16:00 +20°C° 0.5 mm 2 m/s 583 mmHg 92%
17:00 +20°C° 0.5 mm 1 m/s 583 mmHg 95%
18:00 +19°C° 0.5 mm 1 m/s 583 mmHg 97%
19:00 +19°C° 0.2 mm 1 m/s 583 mmHg 97%
20:00 +16°C° 0.2 mm 0 m/s 584 mmHg 97%
21:00 +16°C° 0.2 mm 0 m/s 584 mmHg 97%
22:00 +16°C° 0.2 mm 0 m/s 584 mmHg 97%
23:00 +16°C° 0.2 mm 0 m/s 584 mmHg 96%

27 Septembrie, Duminică

Timp Temperatura Precipitaţii Vânt Presiune Umiditate
00:00 +16°C° 0.2 mm 0 m/s 584 mmHg 96%
01:00 +16°C° 0.1 mm 0 m/s 584 mmHg 95%
02:00 +16°C° 0.1 mm 0 m/s 584 mmHg 95%
03:00 +16°C° 0.1 mm 0 m/s 583 mmHg 94%
04:00 +15°C° 0.1 mm 0 m/s 584 mmHg 93%
05:00 +15°C° 0.1 mm 0 m/s 584 mmHg 93%
06:00 +15°C° 0.1 mm 0 m/s 584 mmHg 92%
07:00 +16°C° 0.4 mm 0 m/s 584 mmHg 93%
08:00 +16°C° 0.4 mm 0 m/s 585 mmHg 93%
09:00 +19°C° 0.4 mm 1 m/s 585 mmHg 94%
10:00 +19°C° 0.3 mm 1 m/s 585 mmHg 93%
11:00 +19°C° 0.3 mm 1 m/s 585 mmHg 93%
12:00 +20°C° 0.3 mm 1 m/s 585 mmHg 92%
13:00 +20°C° 0.3 mm 1 m/s 584 mmHg 93%
14:00 +19°C° 0.3 mm 1 m/s 584 mmHg 93%
15:00 +19°C° 0.3 mm 1 m/s 583 mmHg 94%
16:00 +17°C° 0.1 mm 0 m/s 583 mmHg 95%
17:00 +16°C° 0.1 mm 0 m/s 583 mmHg 96%
18:00 +16°C° 0.1 mm 0 m/s 583 mmHg 97%
19:00 +16°C° 0 mm 0 m/s 584 mmHg 97%
20:00 +16°C° 0 mm 0 m/s 584 mmHg 96%
21:00 +16°C° 0 mm 0 m/s 585 mmHg 96%
22:00 +16°C° 0.1 mm 0 m/s 585 mmHg 95%
23:00 +16°C° 0.1 mm 0 m/s 585 mmHg 94%

28 Septembrie, Luni

Timp Temperatura Precipitaţii Vânt Presiune Umiditate
00:00 +16°C° 0.1 mm 0 m/s 585 mmHg 93%
01:00 +16°C° 0.1 mm 0 m/s 585 mmHg 93%
02:00 +16°C° 0.1 mm 0 m/s 585 mmHg 93%
03:00 +16°C° 0.1 mm 0 m/s 584 mmHg 94%
04:00 +16°C° 0.1 mm 0 m/s 585 mmHg 93%
05:00 +16°C° 0.1 mm 0 m/s 585 mmHg 93%
06:00 +16°C° 0.1 mm 0 m/s 585 mmHg 93%
07:00 +17°C° 0 mm 0 m/s 586 mmHg 88%
08:00 +21°C° 0 mm 1 m/s 587 mmHg 83%
09:00 +22°C° 0 mm 1 m/s 588 mmHg 78%
10:00 +23°C° 0.3 mm 2 m/s 588 mmHg 74%
11:00 +24°C° 0.3 mm 2 m/s 588 mmHg 69%
12:00 +26°C° 0.3 mm 3 m/s 588 mmHg 65%
13:00 +25°C° 0.4 mm 3 m/s 587 mmHg 69%
14:00 +25°C° 0.4 mm 2 m/s 586 mmHg 72%
15:00 +24°C° 0.4 mm 2 m/s 585 mmHg 75%
16:00 +23°C° 0.4 mm 2 m/s 585 mmHg 83%
17:00 +21°C° 0.4 mm 1 m/s 584 mmHg 90%
18:00 +17°C° 0.4 mm 0 m/s 583 mmHg 97%
19:00 +17°C° 0.1 mm 0 m/s 584 mmHg 97%
20:00 +17°C° 0.1 mm 0 m/s 585 mmHg 96%
21:00 +17°C° 0.1 mm 0 m/s 585 mmHg 96%
22:00 +17°C° 0.2 mm 0 m/s 585 mmHg 96%
23:00 +17°C° 0.2 mm 0 m/s 585 mmHg 96%

29 Septembrie, Marţi

Timp Temperatura Precipitaţii Vânt Presiune Umiditate
00:00 +16°C° 0.2 mm 0 m/s 585 mmHg 96%
01:00 +16°C° 0.1 mm 0 m/s 585 mmHg 94%
02:00 +16°C° 0.1 mm 0 m/s 585 mmHg 93%
03:00 +16°C° 0.1 mm 1 m/s 584 mmHg 92%
04:00 +16°C° 0 mm 1 m/s 584 mmHg 90%
05:00 +16°C° 0 mm 1 m/s 584 mmHg 89%
06:00 +15°C° 0 mm 1 m/s 584 mmHg 88%
07:00 +19°C° 0 mm 1 m/s 585 mmHg 82%
08:00 +21°C° 0 mm 1 m/s 586 mmHg 77%
09:00 +23°C° 0 mm 1 m/s 588 mmHg 72%
10:00 +24°C° 0 mm 2 m/s 588 mmHg 66%
11:00 +25°C° 0 mm 2 m/s 587 mmHg 61%
12:00 +27°C° 0 mm 3 m/s 587 mmHg 56%
13:00 +26°C° 0.1 mm 3 m/s 587 mmHg 58%
14:00 +26°C° 0.1 mm 3 m/s 586 mmHg 61%
15:00 +25°C° 0.1 mm 3 m/s 585 mmHg 64%
16:00 +23°C° 0.2 mm 2 m/s 584 mmHg 75%
17:00 +21°C° 0.2 mm 1 m/s 583 mmHg 86%
18:00 +17°C° 0.2 mm 0 m/s 583 mmHg 97%
19:00 +17°C° 0.1 mm 0 m/s 583 mmHg 97%
20:00 +17°C° 0.1 mm 0 m/s 584 mmHg 96%
21:00 +17°C° 0.1 mm 0 m/s 585 mmHg 96%
22:00 +17°C° 0.1 mm 0 m/s 585 mmHg 94%
23:00 +17°C° 0.1 mm 0 m/s 584 mmHg 93%
Arată mai mult